Showing default

IRIDE-MS2-HEO-6, 64576

Orbit data source: Space-Track

IRIDE-MS2-HEO-6, 64576 is an Italian payload satellite in SSO that was launched on Mon, 23 Jun 2025 UTC via an FALCON 9 launch vehicle from the Air Force Western Test Range (AFWTR). Payload-class satellites include a variety of spacecraft equipped with specific instruments for various scientific and technological missions. These include communications satellites like Starlink; space stations such as the ISS; scientific satellites like the Hubble; Earth observation satellites from companies like Planet Labs, Umbra, and HawkEye 360; GPS; miniature CubeSats for education and research; and military/defense satellites.

Loading next visibility...
Identifier
64576, 2025-135BA
Orbit
SSO
Country
Flag of ITIT
Related business
Manufacturer
ArgoTec
Mission
Operational Civil Imaging
Bus & Motor
HAWK, Unknown motor
Mass
65 kg wet, 65 kg dry
Launch date (UTC)
2025-06-23 (10 months ago)
Launch vehicle
FALCON 9
Launch site
Air Force Western Test Range (AFWTR)
Object type
Payload
Rocket body
Debris
Shape & HBR
Box + 2 Pan, 3.0 m
Radar Cross Section
0.683 m², Medium (>0.1 m² and < 1m²)

Expand to show TLE details & history
Last TLE update: 6 hours ago

TLE from 6 hours ago
0 IRIDE-MS2-HEO-6
1 64576U 25135BA  26105.28510073  .00001120  00000-0  11072-3 0  9992
2 64576  97.7635 220.3286 0004138 149.8562 210.2897 14.93881703 44507
Epoch: 2026-04-15T06:50Z
TLE epoch observation values (Epoch: 2026-04-15T06:50:32.703Z)
Latitude
0.00003°
Longitude
-85.75686°
Altitude
591.38 km
Speed
7.563 km/s
True Right ascension
14h 41m 18s
True Declination
0° 00' 00"
Sunlit
Object was in full shadow at epoch
Visualization orbit readout
Latitude
Unknown
Longitude
Unknown
Altitude
Unknown
Speed
Unknown
Apparent Right ascension
Unknown
Apparent Declination
Unknown
Sunlit
N/A
Visualization observer readout
Local Sidereal Time
19:35:15
Azimuth
Unknown
Elevation
Unknown
Doppler factor
Unknown
Orbital elements
Apogee altitude
585.743 km
Perigee altitude
579.982 km
Semi-major axis
6,960.999 km
Eccentricity
0.00041
Inclination
97.7635°
RAAN
220.3286°
Arg. of periapsis
149.8562°
True anomaly
210.26579°
Mean anomaly
210.2897°
Eccentric anomaly
210.27775°
Mean motion
3.73711 °/min
Orbital period
96.33 mins
BSTAR
0.00011072
Loading maneuver chart data...
Computing Atmospheric mass density...
Loading historical data...
Loading historical data...
Loading historical data...
Loading historical data...
Loading historical data...
Loading historical data...
Loading historical data...

Documentation

Showing up to 5 results
|